E27AFE-1 Weather Reports


time (UTC)temp
C
wind
direction
speed
KPH
gust
KPH
rain 1hr
cm
rain 24hr
cm
rain mn
cm
humidity
%
barometer
mb
20260504150417 -17 144 1588.4 0.0 0.00 0.00 0.00
20260504150407 32 0 0.0 0.0 0.00 0.00 0.00 52 1010.0
20260504141227 -17 144 1588.4 0.0 0.00 0.00 0.00
20260504141217 33 0 0.0 0.0 0.00 0.00 0.00 50 1010.0
20260504140326 -17 144 1588.4 0.0 0.00 0.00 0.00
20260504130804 33 0 0.0 0.0 0.00 0.00 0.00 49 1007.0
20260504110554 -17 144 1588.4 0.0 0.00 0.00 0.00
20260504100354 36 0 0.0 0.0 0.00 0.00 0.00 45 1005.0
20260504090111 38 0 0.0 0.0 0.00 0.00 0.00 43 1005.0
20260504080753 40 0 0.0 0.0 0.00 0.00 0.00 42 1005.0
20260504050117 39 0 0.0 0.0 0.00 0.00 0.00 46 1008.0
20260504045055 38 0 0.0 0.0 0.00 0.00 0.00 47 1008.0
20260504044033 38 0 0.0 0.0 0.00 0.00 0.00 48 1008.0
20260504043011 38 0 0.0 0.0 0.00 0.00 0.00 48 1008.0
20260504041949 38 0 0.0 0.0 0.00 0.00 0.00 48 1008.0
20260504040927 37 0 0.0 0.0 0.00 0.00 0.00 49 1009.0
20260504035905 37 0 0.0 0.0 0.00 0.00 0.00 49 1009.0
20260504034843 37 0 0.0 0.0 0.00 0.00 0.00 49 1009.0
20260504033821 37 0 0.0 0.0 0.00 0.00 0.00 50 1009.0
20260504032759 36 0 0.0 0.0 0.00 0.00 0.00 50 1009.0
20260504031737 36 0 0.0 0.0 0.00 0.00 0.00 51 1009.0
20260504030715 36 0 0.0 0.0 0.00 0.00 0.00 51 1009.0
20260504025653 36 0 0.0 0.0 0.00 0.00 0.00 52 1009.0
20260504024631 35 0 0.0 0.0 0.00 0.00 0.00 52 1009.0
20260504023609 35 0 0.0 0.0 0.00 0.00 0.00 53 1009.0
20260504022547 35 0 0.0 0.0 0.00 0.00 0.00 53 1009.0
20260504021525 34 0 0.0 0.0 0.00 0.00 0.00 54 1009.0
20260504020503 33 0 0.0 0.0 0.00 0.00 0.00 54 1009.0
20260504015441 33 0 0.0 0.0 0.00 0.00 0.00 55 1010.0
20260504014419 33 0 0.0 0.0 0.00 0.00 0.00 55 1010.0
20260504013357 32 0 0.0 0.0 0.00 0.00 0.00 56 1010.0
20260504012335 32 0 0.0 0.0 0.00 0.00 0.00 56 1010.0
20260504011313 32 0 0.0 0.0 0.00 0.00 0.00 57 1009.0
20260504010224 31 0 0.0 0.0 0.00 0.00 0.00 58 1009.0
20260504005202 31 0 0.0 0.0 0.00 0.00 0.00 58 1009.0
20260504004140 31 0 0.0 0.0 0.00 0.00 0.00 58 1009.0
20260504003118 30 0 0.0 0.0 0.00 0.00 0.00 59 1009.0
20260504002056 30 0 0.0 0.0 0.00 0.00 0.00 59 1009.0
20260504001034 30 0 0.0 0.0 0.00 0.00 0.00 60 1009.0
20260504000012 30 0 0.0 0.0 0.00 0.00 0.00 60 1009.0
20260503234950 29 0 0.0 0.0 0.00 0.00 0.00 60 1008.0
20260503233928 29 0 0.0 0.0 0.00 0.00 0.00 60 1008.0
20260503232906 29 0 0.0 0.0 0.00 0.00 0.00 61 1008.0
20260503231844 29 0 0.0 0.0 0.00 0.00 0.00 60 1008.0
20260503230832 -17 144 1588.4 0.0 0.00 0.00 0.00
20260503230822 29 0 0.0 0.0 0.00 0.00 0.00 60 1008.0
20260503225810 -17 144 1588.4 0.0 0.00 0.00 0.00
20260503225800 29 0 0.0 0.0 0.00 0.00 0.00 60 1008.0
20260503224748 -17 144 1588.4 0.0 0.00 0.00 0.00
20260503224738 29 0 0.0 0.0 0.00 0.00 0.00 60 1007.0
20260503223725 -17 144 1588.4 0.0 0.00 0.00 0.00
20260503223716 29 0 0.0 0.0 0.00 0.00 0.00 60 1007.0
20260503222702 -17 144 1588.4 0.0 0.00 0.00 0.00
20260503222653 29 0 0.0 0.0 0.00 0.00 0.00 60 1007.0
20260503221640 -17 144 1588.4 0.0 0.00 0.00 0.00
20260503221631 29 0 0.0 0.0 0.00 0.00 0.00 60 1007.0
20260503220618 -17 144 1588.4 0.0 0.00 0.00 0.00
20260503220609 29 0 0.0 0.0 0.00 0.00 0.00 60 1007.0
20260503215556 -17 144 1588.4 0.0 0.00 0.00 0.00
20260503215547 29 0 0.0 0.0 0.00 0.00 0.00 60 1007.0
20260503214534 -17 144 1588.4 0.0 0.00 0.00 0.00
20260503214525 29 0 0.0 0.0 0.00 0.00 0.00 60 1007.0
20260503213512 -17 144 1588.4 0.0 0.00 0.00 0.00
20260503213503 30 0 0.0 0.0 0.00 0.00 0.00 59 1007.0
20260503212450 -17 144 1588.4 0.0 0.00 0.00 0.00
20260503212441 30 0 0.0 0.0 0.00 0.00 0.00 59 1007.0
20260503211428 -17 144 1588.4 0.0 0.00 0.00 0.00
20260503211419 30 0 0.0 0.0 0.00 0.00 0.00 59 1007.0
20260503210406 -17 144 1588.4 0.0 0.00 0.00 0.00
20260503210357 30 0 0.0 0.0 0.00 0.00 0.00 59 1007.0
20260503205344 -17 144 1588.4 0.0 0.00 0.00 0.00
20260503205334 30 0 0.0 0.0 0.00 0.00 0.00 59 1007.0
20260503204322 -17 144 1588.4 0.0 0.00 0.00 0.00
20260503204313 30 0 0.0 0.0 0.00 0.00 0.00 59 1007.0
20260503203300 -17 144 1588.4 0.0 0.00 0.00 0.00
20260503203251 30 0 0.0 0.0 0.00 0.00 0.00 59 1007.0
20260503202238 -17 144 1588.4 0.0 0.00 0.00 0.00
20260503202228 30 0 0.0 0.0 0.00 0.00 0.00 58 1007.0
20260503201216 -17 144 1588.4 0.0 0.00 0.00 0.00
20260503201206 30 0 0.0 0.0 0.00 0.00 0.00 58 1007.0
20260503200154 -17 144 1588.4 0.0 0.00 0.00 0.00
20260503200144 30 0 0.0 0.0 0.00 0.00 0.00 58 1007.0
20260503195132 -17 144 1588.4 0.0 0.00 0.00 0.00
20260503195122 30 0 0.0 0.0 0.00 0.00 0.00 58 1007.0
20260503194109 -17 144 1588.4 0.0 0.00 0.00 0.00
20260503194100 30 0 0.0 0.0 0.00 0.00 0.00 58 1007.0
20260503193047 -17 144 1588.4 0.0 0.00 0.00 0.00
20260503193038 30 0 0.0 0.0 0.00 0.00 0.00 58 1007.0
20260503192025 -17 144 1588.4 0.0 0.00 0.00 0.00
20260503192016 30 0 0.0 0.0 0.00 0.00 0.00 57 1007.0
20260503191003 -17 144 1588.4 0.0 0.00 0.00 0.00
20260503190954 30 0 0.0 0.0 0.00 0.00 0.00 57 1007.0
20260503185941 -17 144 1588.4 0.0 0.00 0.00 0.00
20260503185932 30 0 0.0 0.0 0.00 0.00 0.00 57 1007.0
20260503184919 -17 144 1588.4 0.0 0.00 0.00 0.00
20260503184910 30 0 0.0 0.0 0.00 0.00 0.00 57 1007.0
20260503183857 -17 144 1588.4 0.0 0.00 0.00 0.00
20260503183848 30 0 0.0 0.0 0.00 0.00 0.00 57 1007.0
20260503182835 -17 144 1588.4 0.0 0.00 0.00 0.00
20260503182825 30 0 0.0 0.0 0.00 0.00 0.00 57 1007.0
20260503181813 -17 144 1588.4 0.0 0.00 0.00 0.00
20260503181803 31 0 0.0 0.0 0.00 0.00 0.00 57 1008.0
20260503180751 -17 144 1588.4 0.0 0.00 0.00 0.00
20260503180741 31 0 0.0 0.0 0.00 0.00 0.00 57 1008.0
20260503175729 -17 144 1588.4 0.0 0.00 0.00 0.00
20260503175719 31 0 0.0 0.0 0.00 0.00 0.00 57 1008.0
20260503174708 -17 144 1588.4 0.0 0.00 0.00 0.00
20260503174657 31 0 0.0 0.0 0.00 0.00 0.00 56 1008.0
20260503173645 -17 144 1588.4 0.0 0.00 0.00 0.00
20260503173636 31 0 0.0 0.0 0.00 0.00 0.00 56 1008.0
20260503172623 -17 144 1588.4 0.0 0.00 0.00 0.00
20260503172614 31 0 0.0 0.0 0.00 0.00 0.00 56 1008.0
20260503171601 -17 144 1588.4 0.0 0.00 0.00 0.00
20260503171552 31 0 0.0 0.0 0.00 0.00 0.00 56 1008.0
20260503170539 -17 144 1588.4 0.0 0.00 0.00 0.00
20260503170530 31 0 0.0 0.0 0.00 0.00 0.00 56 1008.0